Time,TemperatureF,DewpointF,PressureIn,WindDirection,WindDirectionDegrees,WindSpeedMPH,WindSpeedGustMPH,Humidity,HourlyPrecipIn,Conditions,Clouds,dailyrainin,SoftwareType,DateUTC
2013-03-07 00:04:00,49.1,37.0,30.14,NW,321,6.0,10.0,63,0.00,,,0.00,weatherlink.com 1.10,2013-03-07 05:04:00,
2013-03-07 00:19:00,49.1,36.0,30.14,North,350,13.0,14.0,62,0.00,,,0.00,weatherlink.com 1.10,2013-03-07 05:19:00,
2013-03-07 00:34:00,48.9,36.0,30.14,North,358,4.0,9.0,61,0.00,,,0.00,weatherlink.com 1.10,2013-03-07 05:34:00,
2013-03-07 00:49:00,48.4,35.0,30.14,NNW,335,6.0,11.0,61,0.00,,,0.00,weatherlink.com 1.10,2013-03-07 05:49:00,
2013-03-07 01:05:00,47.9,35.0,30.14,NE,39,6.0,10.0,62,0.00,,,0.00,weatherlink.com 1.10,2013-03-07 06:05:00,
2013-03-07 01:20:00,47.4,35.0,30.14,NNW,338,3.0,9.0,62,0.00,,,0.00,weatherlink.com 1.10,2013-03-07 06:20:00,
2013-03-07 01:35:00,47.1,35.0,30.14,NW,325,3.0,9.0,63,0.00,,,0.00,weatherlink.com 1.10,2013-03-07 06:35:00,
2013-03-07 01:51:00,46.8,35.0,30.14,North,4,6.0,9.0,65,0.00,,,0.00,weatherlink.com 1.10,2013-03-07 06:51:00,
2013-03-07 02:05:00,46.3,35.0,30.14,NW,323,3.0,7.0,66,0.00,,,0.00,weatherlink.com 1.10,2013-03-07 07:05:00,
2013-03-07 02:20:00,45.4,35.0,30.14,NW,310,5.0,6.0,67,0.00,,,0.00,weatherlink.com 1.10,2013-03-07 07:20:00,
2013-03-07 02:35:00,45.3,34.0,30.14,North,349,3.0,7.0,66,0.00,,,0.00,weatherlink.com 1.10,2013-03-07 07:35:00,
2013-03-07 02:50:00,45.2,34.0,30.14,NW,321,7.0,7.0,66,0.00,,,0.00,weatherlink.com 1.10,2013-03-07 07:50:00,
2013-03-07 03:05:00,44.9,34.0,30.14,NNW,347,5.0,8.0,66,0.00,,,0.00,weatherlink.com 1.10,2013-03-07 08:05:00,
2013-03-07 03:20:00,44.9,34.0,30.13,WNW,297,5.0,9.0,66,0.00,,,0.00,weatherlink.com 1.10,2013-03-07 08:20:00,
2013-03-07 03:35:00,44.9,34.0,30.12,NW,315,5.0,10.0,66,0.00,,,0.00,weatherlink.com 1.10,2013-03-07 08:35:00,
2013-03-07 03:50:00,44.8,34.0,30.13,NNW,342,4.0,7.0,67,0.00,,,0.00,weatherlink.com 1.10,2013-03-07 08:50:00,
2013-03-07 04:20:00,44.3,34.0,30.14,NNW,327,8.0,9.0,68,0.00,,,0.00,weatherlink.com 1.10,2013-03-07 09:20:00,
2013-03-07 04:35:00,44.6,34.0,30.14,North,350,6.0,12.0,67,0.00,,,0.00,weatherlink.com 1.10,2013-03-07 09:35:00,
2013-03-07 04:50:00,44.5,34.0,30.14,North,359,7.0,11.0,66,0.00,,,0.00,weatherlink.com 1.10,2013-03-07 09:50:00,
2013-03-07 05:05:00,44.4,34.0,30.15,NNW,335,5.0,11.0,66,0.00,,,0.00,weatherlink.com 1.10,2013-03-07 10:05:00,
2013-03-07 05:20:00,43.9,33.0,30.16,North,355,5.0,13.0,66,0.00,,,0.00,weatherlink.com 1.10,2013-03-07 10:20:00,
2013-03-07 05:35:00,43.3,33.0,30.16,NNW,345,6.0,10.0,67,0.00,,,0.00,weatherlink.com 1.10,2013-03-07 10:35:00,
2013-03-07 05:50:00,43.0,33.0,30.16,NNE,27,10.0,11.0,68,0.00,,,0.00,weatherlink.com 1.10,2013-03-07 10:50:00,
2013-03-07 06:05:00,42.8,33.0,30.17,NNW,327,5.0,8.0,68,0.00,,,0.00,weatherlink.com 1.10,2013-03-07 11:05:00,
2013-03-07 06:20:00,42.2,33.0,30.17,NNE,13,4.0,10.0,70,0.00,,,0.00,weatherlink.com 1.10,2013-03-07 11:20:00,
2013-03-07 06:35:00,41.4,33.0,30.18,NNW,340,6.0,8.0,72,0.00,,,0.00,weatherlink.com 1.10,2013-03-07 11:35:00,
2013-03-07 07:06:00,41.0,33.0,30.19,NNE,19,2.0,5.0,73,0.00,,,0.00,weatherlink.com 1.10,2013-03-07 12:06:00,
2013-03-07 07:21:00,41.5,33.0,30.20,North,351,3.0,6.0,73,0.00,,,0.00,weatherlink.com 1.10,2013-03-07 12:21:00,
2013-03-07 07:36:00,42.3,34.0,30.20,NNE,30,3.0,6.0,71,0.00,,,0.00,weatherlink.com 1.10,2013-03-07 12:36:00,
2013-03-07 07:51:00,43.5,33.0,30.21,NNW,338,1.0,8.0,67,0.00,,,0.00,weatherlink.com 1.10,2013-03-07 12:51:00,
2013-03-07 08:06:00,44.1,33.0,30.21,NNE,23,7.0,14.0,66,0.00,,,0.00,weatherlink.com 1.10,2013-03-07 13:06:00,
2013-03-07 08:21:00,44.7,33.0,30.21,NNE,17,6.0,12.0,65,0.00,,,0.00,weatherlink.com 1.10,2013-03-07 13:21:00,
2013-03-07 08:36:00,45.2,34.0,30.21,NNW,328,9.0,12.0,64,0.00,,,0.00,weatherlink.com 1.10,2013-03-07 13:36:00,
2013-03-07 08:51:00,46.0,34.0,30.22,NW,321,6.0,15.0,63,0.00,,,0.00,weatherlink.com 1.10,2013-03-07 13:51:00,
2013-03-07 09:06:00,47.1,34.0,30.22,NNE,20,7.0,11.0,61,0.00,,,0.00,weatherlink.com 1.10,2013-03-07 14:06:00,
2013-03-07 09:21:00,47.5,34.0,30.22,North,356,4.0,12.0,59,0.00,,,0.00,weatherlink.com 1.10,2013-03-07 14:21:00,
2013-03-07 09:36:00,48.0,34.0,30.22,NNW,334,4.0,9.0,58,0.00,,,0.00,weatherlink.com 1.10,2013-03-07 14:36:00,
2013-03-07 09:51:00,49.4,35.0,30.22,NE,51,5.0,9.0,59,0.00,,,0.00,weatherlink.com 1.10,2013-03-07 14:51:00,
2013-03-07 10:06:00,50.3,36.0,30.23,NNE,22,2.0,8.0,58,0.00,,,0.00,weatherlink.com 1.10,2013-03-07 15:06:00,
2013-03-07 10:21:00,51.4,37.0,30.23,NW,326,3.0,8.0,58,0.00,,,0.00,weatherlink.com 1.10,2013-03-07 15:21:00,
2013-03-07 10:36:00,52.0,37.0,30.23,North,9,1.0,9.0,57,0.00,,,0.00,weatherlink.com 1.10,2013-03-07 15:36:00,
2013-03-07 10:51:00,53.6,38.0,30.23,NNW,346,3.0,7.0,57,0.00,,,0.00,weatherlink.com 1.10,2013-03-07 15:51:00,
2013-03-07 11:06:00,54.0,38.0,30.23,NNE,27,5.0,7.0,56,0.00,,,0.00,weatherlink.com 1.10,2013-03-07 16:06:00,
2013-03-07 11:21:00,55.0,39.0,30.23,WNW,300,4.0,8.0,56,0.00,,,0.00,weatherlink.com 1.10,2013-03-07 16:21:00,
2013-03-07 11:36:00,56.2,39.0,30.22,NNW,348,5.0,7.0,53,0.00,,,0.00,weatherlink.com 1.10,2013-03-07 16:36:00,
2013-03-07 11:51:00,57.2,39.0,30.22,NW,312,1.0,9.0,51,0.00,,,0.00,weatherlink.com 1.10,2013-03-07 16:51:00,
2013-03-07 12:06:00,58.6,40.0,30.22,NNE,23,4.0,6.0,51,0.00,,,0.00,weatherlink.com 1.10,2013-03-07 17:06:00,
2013-03-07 12:21:00,59.0,39.0,30.20,North,6,2.0,6.0,48,0.00,,,0.00,weatherlink.com 1.10,2013-03-07 17:21:00,
2013-03-07 12:36:00,60.4,39.0,30.19,SSE,147,1.0,6.0,46,0.00,,,0.00,weatherlink.com 1.10,2013-03-07 17:36:00,
2013-03-07 12:51:00,61.1,39.0,30.19,NW,311,4.0,15.0,44,0.00,,,0.00,weatherlink.com 1.10,2013-03-07 17:51:00,
2013-03-07 13:06:00,60.8,40.0,30.19,North,5,3.0,7.0,46,0.00,,,0.00,weatherlink.com 1.10,2013-03-07 18:06:00,
2013-03-07 13:21:00,61.7,39.0,30.19,NW,309,2.0,5.0,44,0.00,,,0.00,weatherlink.com 1.10,2013-03-07 18:21:00,
2013-03-07 13:36:00,62.4,39.0,30.17,West,277,2.0,7.0,43,0.00,,,0.00,weatherlink.com 1.10,2013-03-07 18:36:00,
2013-03-07 13:51:00,63.8,40.0,30.17,ESE,117,1.0,5.0,42,0.00,,,0.00,weatherlink.com 1.10,2013-03-07 18:51:00,
2013-03-07 14:07:00,64.1,40.0,30.17,North,349,4.0,7.0,41,0.00,,,0.00,weatherlink.com 1.10,2013-03-07 19:07:00,
2013-03-07 14:22:00,64.8,40.0,30.17,NNE,22,6.0,8.0,41,0.00,,,0.00,weatherlink.com 1.10,2013-03-07 19:22:00,
2013-03-07 14:37:00,64.5,40.0,30.16,NNE,27,1.0,10.0,40,0.00,,,0.00,weatherlink.com 1.10,2013-03-07 19:37:00,
2013-03-07 14:52:00,65.3,39.0,30.15,NNW,347,5.0,9.0,38,0.00,,,0.00,weatherlink.com 1.10,2013-03-07 19:52:00,
2013-03-07 15:07:00,65.9,39.0,30.14,NNW,328,5.0,9.0,38,0.00,,,0.00,weatherlink.com 1.10,2013-03-07 20:07:00,
2013-03-07 15:22:00,66.2,39.0,30.14,NW,307,4.0,7.0,37,0.00,,,0.00,weatherlink.com 1.10,2013-03-07 20:22:00,
2013-03-07 15:37:00,66.4,39.0,30.14,NNE,29,1.0,8.0,36,0.00,,,0.00,weatherlink.com 1.10,2013-03-07 20:37:00,
2013-03-07 15:52:00,67.0,39.0,30.15,North,5,4.0,10.0,36,0.00,,,0.00,weatherlink.com 1.10,2013-03-07 20:52:00,
2013-03-07 16:07:00,67.1,38.0,30.14,North,6,2.0,7.0,35,0.00,,,0.00,weatherlink.com 1.10,2013-03-07 21:07:00,
2013-03-07 16:22:00,67.6,40.0,30.15,North,9,4.0,8.0,36,0.00,,,0.00,weatherlink.com 1.10,2013-03-07 21:22:00,
2013-03-07 16:37:00,67.8,39.0,30.14,WSW,248,1.0,4.0,35,0.00,,,0.00,weatherlink.com 1.10,2013-03-07 21:37:00,
2013-03-07 16:52:00,68.0,39.0,30.14,NW,320,2.0,6.0,35,0.00,,,0.00,weatherlink.com 1.10,2013-03-07 21:52:00,
2013-03-07 17:07:00,66.9,38.0,30.14,NNW,340,0.0,7.0,35,0.00,,,0.00,weatherlink.com 1.10,2013-03-07 22:07:00,
2013-03-07 17:22:00,66.5,38.0,30.14,NW,307,3.0,5.0,35,0.00,,,0.00,weatherlink.com 1.10,2013-03-07 22:22:00,
2013-03-07 17:37:00,66.1,38.0,30.14,NW,314,3.0,5.0,36,0.00,,,0.00,weatherlink.com 1.10,2013-03-07 22:37:00,
2013-03-07 17:52:00,65.7,37.0,30.14,WNW,300,1.0,4.0,35,0.00,,,0.00,weatherlink.com 1.10,2013-03-07 22:52:00,
2013-03-07 18:07:00,65.1,38.0,30.15,West,260,0.0,2.0,37,0.00,,,0.00,weatherlink.com 1.10,2013-03-07 23:07:00,
2013-03-07 18:22:00,64.0,38.0,30.14,West,260,0.0,1.0,39,0.00,,,0.00,weatherlink.com 1.10,2013-03-07 23:22:00,
2013-03-07 18:37:00,61.7,38.0,30.15,West,259,0.0,0.0,41,0.00,,,0.00,weatherlink.com 1.10,2013-03-07 23:37:00,
2013-03-07 18:52:00,58.8,38.0,30.16,West,259,0.0,0.0,46,0.00,,,0.00,weatherlink.com 1.10,2013-03-07 23:52:00,
2013-03-07 19:07:00,58.8,40.0,30.16,West,263,1.0,2.0,51,0.00,,,0.00,weatherlink.com 1.10,2013-03-08 00:07:00,
2013-03-07 19:22:00,58.5,41.0,30.17,WNW,288,3.0,5.0,53,0.00,,,0.00,weatherlink.com 1.10,2013-03-08 00:22:00,
2013-03-07 19:37:00,57.6,40.0,30.18,NNW,335,4.0,5.0,53,0.00,,,0.00,weatherlink.com 1.10,2013-03-08 00:37:00,
2013-03-07 19:52:00,56.5,40.0,30.19,NW,321,4.0,7.0,55,0.00,,,0.00,weatherlink.com 1.10,2013-03-08 00:52:00,
2013-03-07 20:07:00,55.6,40.0,30.19,WNW,295,2.0,8.0,57,0.00,,,0.00,weatherlink.com 1.10,2013-03-08 01:07:00,
2013-03-07 20:22:00,54.5,40.0,30.20,NNW,335,1.0,6.0,59,0.00,,,0.00,weatherlink.com 1.10,2013-03-08 01:22:00,
2013-03-07 20:37:00,53.6,40.0,30.20,NW,305,1.0,4.0,61,0.00,,,0.00,weatherlink.com 1.10,2013-03-08 01:37:00,
2013-03-07 20:52:00,52.7,41.0,30.20,NW,318,2.0,7.0,64,0.00,,,0.00,weatherlink.com 1.10,2013-03-08 01:52:00,
2013-03-07 21:07:00,52.0,41.0,30.21,WNW,298,3.0,8.0,66,0.00,,,0.00,weatherlink.com 1.10,2013-03-08 02:07:00,
2013-03-07 21:22:00,51.3,41.0,30.21,NNW,347,3.0,8.0,69,0.00,,,0.00,weatherlink.com 1.10,2013-03-08 02:22:00,
2013-03-07 21:37:00,50.6,41.0,30.21,WNW,293,2.0,6.0,71,0.00,,,0.00,weatherlink.com 1.10,2013-03-08 02:37:00,
2013-03-07 21:52:00,50.0,42.0,30.21,NW,309,3.0,5.0,73,0.00,,,0.00,weatherlink.com 1.10,2013-03-08 02:52:00,
2013-03-07 22:07:00,49.5,42.0,30.21,WNW,303,1.0,5.0,75,0.00,,,0.00,weatherlink.com 1.10,2013-03-08 03:07:00,
2013-03-07 22:22:00,49.1,42.0,30.21,WNW,290,2.0,4.0,77,0.00,,,0.00,weatherlink.com 1.10,2013-03-08 03:22:00,
2013-03-07 22:37:00,48.5,42.0,30.21,WNW,284,1.0,2.0,79,0.00,,,0.00,weatherlink.com 1.10,2013-03-08 03:37:00,
2013-03-07 22:52:00,48.0,42.0,30.21,NW,309,3.0,3.0,80,0.00,,,0.00,weatherlink.com 1.10,2013-03-08 03:52:00,
2013-03-07 23:07:00,47.6,42.0,30.21,NW,314,1.0,3.0,81,0.00,,,0.00,weatherlink.com 1.10,2013-03-08 04:07:00,
2013-03-07 23:22:00,47.0,42.0,30.23,East,101,0.0,1.0,83,0.00,,,0.00,weatherlink.com 1.10,2013-03-08 04:22:00,
2013-03-07 23:37:00,45.8,42.0,30.22,East,101,0.0,0.0,85,0.00,,,0.00,weatherlink.com 1.10,2013-03-08 04:37:00,
2013-03-07 23:52:00,44.8,41.0,30.22,East,101,0.0,0.0,87,0.00,,,0.00,weatherlink.com 1.10,2013-03-08 04:52:00,